Terminal Aerodrome Forecast
Issued by NWS Wilmington, OH

Current Version | Previous Version | Text Only | Print | Product List | Glossary Off
Versions: 1 2 3 4 5 6 7 8 9 10 11 12 13 14 15 16 17 18 19 20 21

000
FTUS41 KILN 220539
TAFDAY
TAF
KDAY 220539Z 2206/2306 17006KT 4SM BR VCSH FEW070 OVC140
     FM220800 17006KT 2SM BR OVC025
     FM220900 18005KT 3SM BR OVC015
     FM221300 20004KT 3SM BR OVC008
     FM221600 20006KT 6SM BR BKN015
     FM221800 21007KT 6SM BR BKN025
     FM230300 20005KT P6SM BKN015=

USA.gov is the U.S. government's official web portal to all federal, state and local government web resources and services.